Home > Weather > Coesfeld > Past weeks

Flag for Germany Past Weather in Coesfeld, North Rhine-Westphalia, Germany — Yesterday and Last 2 Weeks

Now
63 °F

Broken clouds.


Feels Like: 63 °F
Forecast: 52 / 71 °F
Wind: 10 mph from West

Location: Rheine-Bentlage

Current Time: Aug 29, 2016 at 9:33:27 AM

Latest Report: Aug 29, 2016 at 8:20 AM


Visibility: N/A

Pressure: 30.01 "Hg

Humidity: 88%

Dew Point: 59 °F

Location of CoesfeldLocation

Past Weather in Coesfeld — Graph

°F

Coesfeld Temperature Yesterday

Maximum temperature yesterday: 86 °F (at 12:20 PM)
Minimum temperature yesterday: 66 °F (at 6:20 AM)
Average temperature yesterday: 74 °F

High & Low Weather Summary for the Past Weeks

 TemperatureHumidityPressure
High90 °F (Aug 25, 4:20 PM)100% (Aug 14, 8:20 AM)30.33 "Hg (Aug 14, 8:20 AM)
Low50 °F (Aug 15, 6:20 AM)36% (Aug 18, 5:20 PM)29.77 "Hg (Aug 19, 5:20 PM)
Average67 °F72%30.04 "Hg
* Reported Aug 14 8:20 AM — Aug 29 8:20 AM, Coesfeld, Weather by CustomWeather, © 2016

Note: Actual official high and low records may vary slightly from our data, if they occured in-between our weather recording intervals... More about our weather records

Advertising

Coesfeld Weather History for the Previous 24 Hours

Scroll right to see more
 ConditionsComfort  
Time TempWeatherWind HumidityBarometerVisibility
8:20 AM
Mon, Aug 29
63 °FBroken clouds.10 mph88%30.01 "HgN/A
7:20 AM63 °FPartly cloudy.9 mph88%29.98 "HgN/A
6:20 AM63 °FPartly cloudy.9 mph83%29.98 "HgN/A
5:20 AM63 °FMild.9 mph83%29.95 "HgN/A
4:20 AM63 °FMild.8 mph83%29.95 "HgN/A
3:20 AM63 °FMild.6 mph77%29.95 "HgN/A
2:20 AM61 °FCool.6 mph88%29.95 "HgN/A
1:20 AM63 °FMild.5 mph77%29.98 "HgN/A
12:20 AM64 °FMild.7 mph73%29.98 "HgN/A
11:20 PM
Sun, Aug 28
66 °FMild.8 mph68%29.98 "HgN/A
10:20 PM66 °FMild.7 mph68%29.98 "HgN/A
9:20 PM68 °FMild.7 mph64%29.95 "HgN/A
8:20 PM70 °FMild.9 mph60%29.95 "HgN/A
7:20 PM72 °FMild.20 mph57%29.92 "HgN/A
6:20 PM73 °FMild.20 mph61%29.92 "HgN/A
5:20 PM77 °FWarm.15 mph57%29.89 "HgN/A
4:20 PM79 °FWarm.15 mph61%29.89 "HgN/A
3:20 PM82 °FWarm.13 mph58%29.86 "HgN/A
2:20 PM84 °FWarm.14 mph51%29.86 "HgN/A
1:20 PM86 °FWarm.16 mph49%29.83 "HgN/A
12:20 PM86 °FWarm.10 mph49%29.83 "HgN/A
11:20 AM82 °FWarm.7 mph58%29.86 "HgN/A
10:20 AM79 °FWarm.6 mph61%29.86 "HgN/A
9:20 AM75 °FMild.7 mph69%29.86 "HgN/A
Weather by CustomWeather, © 2016

See weather overviewHow to use our weather pages